Marfa, TX

9:57 AM CST on November 22, 2017 (GMT -0600)
Marfa Municipal

Weather History for KMRF - January, 2014

Change the Weather History Date:

Saturday, January 4, 2014

  Actual Average Record
Temperature  
Mean Temperature 45 °F -  
Max Temperature 64 °F 56 °F 71 °F (2005)
Min Temperature 26 °F 25 °F 10 °F (1999)
Degree Days  
Heating Degree Days 20    
Moisture  
Dew Point 28 °F    
Average Humidity 51    
Maximum Humidity 93    
Minimum Humidity 28    
Precipitation  
Precipitation 0.00 in - - ()
Sea Level Pressure  
Sea Level Pressure 29.99 in    
Wind  
Wind Speed 10 mph (SW)    
Max Wind Speed 25 mph    
Max Gust Speed 31 mph    
Visibility 10 miles    
Events      
Averages and records for this station are not official NWS values.
T = Trace of Precipitation, MM = Missing Value Source: NWS Daily Summary

Daily Weather History Graph

Daily Weather History Graph

Search for Another Location

Airport or City:

Trip Planner

Search our weather history database for the weather conditions in past years. The results will help you decide how hot, cold, wet, or windy it might be!

Date:

Astronomy

Jan. 04, 2014 Rise Set
Actual Time 7:53 AM CST 6:08 PM CST
Civil Twilight 7:27 AM CST 6:35 PM CST
Nautical Twilight 6:57 AM CST 7:05 PM CST
Astronomical Twilight 6:28 AM CST 7:34 PM CST
Moon 10:17 AM CST (1/4) 10:12 PM CST (1/4)
Length of Visible Light 11h 08m
Length of Day
10h 15m
Waxing Crescent, 15% of the Moon is Illuminated
Jan 4
Waxing Crescent
Jan 7
First Quarter
Jan 15
Full
Jan 23
Last Quarter
Jan 30
New

Hourly Weather History & Observations

Time (CST) Temp. Windchill Dew Point Humidity Pressure Visibility Wind Dir Wind Speed Gust Speed Precip Events Conditions
12:15 AM 28.4 °F 24.6 °F 24.8 °F 86% 30.05 in 10.0 mi North 3.5 mph - N/A   Clear
12:35 AM 28.4 °F 23.3 °F 24.8 °F 86% 30.05 in 10.0 mi NW 4.6 mph - N/A   Clear
12:55 AM 30.2 °F 26.7 °F 26.6 °F 86% 30.05 in 10.0 mi WNW 3.5 mph - N/A   Clear
1:15 AM 26.6 °F 20.0 °F 21.2 °F 80% 30.04 in 10.0 mi West 5.8 mph - N/A   Clear
1:35 AM 30.2 °F 23.4 °F 26.6 °F 86% 30.04 in 10.0 mi West 6.9 mph - N/A   Clear
1:55 AM 33.8 °F 27.7 °F 26.6 °F 75% 30.04 in 10.0 mi West 6.9 mph - N/A   Clear
2:15 AM 33.8 °F 27.0 °F 26.6 °F 75% 30.04 in 10.0 mi West 8.1 mph - N/A   Clear
2:35 AM 32.0 °F 23.6 °F 26.6 °F 80% 30.03 in 10.0 mi West 10.4 mph - N/A   Clear
2:55 AM 32.0 °F 24.8 °F 26.6 °F 80% 30.03 in 10.0 mi West 8.1 mph - N/A   Clear
3:15 AM 32.0 °F 23.0 °F 26.6 °F 80% 30.03 in 10.0 mi West 11.5 mph - N/A   Clear
3:35 AM 33.8 °F 27.7 °F 28.4 °F 81% 30.03 in 10.0 mi West 6.9 mph - N/A   Clear
3:55 AM 33.8 °F 27.7 °F 26.6 °F 75% 30.03 in 10.0 mi West 6.9 mph - N/A   Clear
4:15 AM 33.8 °F 26.4 °F 26.6 °F 75% 30.03 in 10.0 mi WNW 9.2 mph - N/A   Clear
4:35 AM 35.6 °F 29.2 °F 26.6 °F 70% 30.03 in 10.0 mi WNW 8.1 mph - N/A   Clear
4:55 AM 30.2 °F 24.3 °F 26.6 °F 86% 30.02 in 10.0 mi WNW 5.8 mph - N/A   Clear
5:15 AM 30.2 °F 24.3 °F 26.6 °F 86% 30.02 in 10.0 mi North 5.8 mph - N/A   Clear
5:35 AM 30.2 °F 26.7 °F 26.6 °F 86% 30.03 in 10.0 mi NNW 3.5 mph - N/A   Clear
5:55 AM 28.4 °F - 23.0 °F 80% 30.03 in 10.0 mi Calm Calm - N/A   Clear
6:15 AM 28.4 °F 24.6 °F 26.6 °F 93% 30.02 in 10.0 mi SE 3.5 mph - N/A   Clear
6:35 AM 30.2 °F 25.4 °F 26.6 °F 86% 30.02 in 10.0 mi SSE 4.6 mph - N/A   Clear
6:55 AM 32.0 °F - 26.6 °F 80% 30.02 in 10.0 mi Calm Calm - N/A   Clear
7:15 AM 32.0 °F - 26.6 °F 80% 30.02 in 10.0 mi Calm Calm - N/A   Clear
7:35 AM 35.6 °F 29.9 °F 28.4 °F 75% 30.01 in 10.0 mi WSW 6.9 mph - N/A   Clear
7:55 AM 42.8 °F 35.4 °F 30.2 °F 61% 30.01 in 10.0 mi SW 15.0 mph - N/A   Clear
8:15 AM 42.8 °F 36.2 °F 30.2 °F 61% 30.02 in 10.0 mi SW 12.7 mph - N/A   Clear
8:35 AM 42.8 °F 36.2 °F 28.4 °F 57% 30.02 in 10.0 mi SW 12.7 mph - N/A   Clear
8:55 AM 42.8 °F 36.2 °F 30.2 °F 61% 30.03 in 10.0 mi SW 12.7 mph - N/A   Clear
9:15 AM 44.6 °F 38.4 °F 30.2 °F 57% 30.04 in 10.0 mi SW 12.7 mph - N/A   Clear
9:35 AM 48.2 °F - 32.0 °F 54% 30.04 in 10.0 mi SSW 13.8 mph - N/A   Clear
9:55 AM 48.2 °F - 32.0 °F 54% 30.05 in 10.0 mi SSW 12.7 mph - N/A   Clear
10:15 AM 51.8 °F - 32.0 °F 47% 30.05 in 10.0 mi SSW 13.8 mph - N/A   Clear
10:35 AM 55.4 °F - 32.0 °F 41% 30.05 in 10.0 mi SSW 12.7 mph - N/A   Clear
10:55 AM 59.0 °F - 32.0 °F 36% 30.04 in 10.0 mi SSW 11.5 mph - N/A   Clear
11:15 AM 60.8 °F - 32.0 °F 34% 30.04 in 10.0 mi SSW 10.4 mph - N/A   Clear
11:35 AM 60.8 °F - 33.8 °F 36% 30.03 in 10.0 mi SW 15.0 mph - N/A   Clear
11:55 AM 62.6 °F - 33.8 °F 34% 30.01 in 10.0 mi SW 18.4 mph - N/A   Clear
12:15 PM 64.4 °F - 32.0 °F 30% 30.00 in 10.0 mi WSW 25.3 mph 28.8 mph N/A   Clear
12:35 PM 64.4 °F - 32.0 °F 30% 30.00 in 10.0 mi WSW 20.7 mph 28.8 mph N/A   Clear
12:55 PM 64.4 °F - 30.2 °F 28% 29.99 in 10.0 mi WSW 21.9 mph 31.1 mph N/A   Clear
1:15 PM 64.4 °F - 30.2 °F 28% 29.98 in 10.0 mi WSW 21.9 mph 31.1 mph N/A   Clear
1:35 PM 62.6 °F - 30.2 °F 30% 29.97 in 10.0 mi WSW 20.7 mph 29.9 mph N/A   Clear
1:55 PM 62.6 °F - 30.2 °F 30% 29.96 in 10.0 mi WSW 23.0 mph 28.8 mph N/A   Clear
2:15 PM 60.8 °F - 30.2 °F 31% 29.95 in 10.0 mi WSW 23.0 mph - N/A   Clear
2:35 PM 60.8 °F - 30.2 °F 31% 29.95 in 10.0 mi WSW 18.4 mph 24.2 mph N/A   Clear
2:55 PM 60.8 °F - 30.2 °F 31% 29.94 in 10.0 mi WSW 23.0 mph 27.6 mph N/A   Clear
3:15 PM 60.8 °F - 30.2 °F 31% 29.94 in 10.0 mi SW 23.0 mph 26.5 mph N/A   Clear
3:35 PM 60.8 °F - 30.2 °F 31% 29.94 in 10.0 mi WSW 23.0 mph 31.1 mph N/A   Clear
3:55 PM 60.8 °F - 28.4 °F 29% 29.94 in 10.0 mi WSW 25.3 mph 28.8 mph N/A   Clear
4:15 PM 60.8 °F - 28.4 °F 29% 29.93 in 10.0 mi WSW 23.0 mph 27.6 mph N/A   Clear
4:35 PM 60.8 °F - 30.2 °F 31% 29.94 in 10.0 mi WSW 19.6 mph - N/A   Clear
4:55 PM 60.8 °F - 30.2 °F 31% 29.94 in 10.0 mi SW 13.8 mph 19.6 mph N/A   Clear
5:15 PM 59.0 °F - 30.2 °F 34% 29.94 in 10.0 mi SW 10.4 mph - N/A   Clear
5:35 PM 59.0 °F - 30.2 °F 34% 29.93 in 10.0 mi SW 13.8 mph - N/A   Clear
5:55 PM 57.2 °F - 30.2 °F 36% 29.93 in 10.0 mi SW 12.7 mph - N/A   Clear
6:15 PM 57.2 °F - 30.2 °F 36% 29.93 in 10.0 mi SW 12.7 mph - N/A   Clear
6:35 PM 55.4 °F - 28.4 °F 36% 29.94 in 10.0 mi SW 12.7 mph - N/A   Clear
6:55 PM 55.4 °F - 28.4 °F 36% 29.95 in 10.0 mi SW 9.2 mph - N/A   Clear
7:15 PM 55.4 °F - 28.4 °F 36% 29.94 in 10.0 mi SSW 9.2 mph - N/A   Clear
7:35 PM 55.4 °F - 28.4 °F 36% 29.95 in 10.0 mi SSW 11.5 mph - N/A   Clear
7:55 PM 55.4 °F - 26.6 °F 33% 29.95 in 10.0 mi SSW 12.7 mph 19.6 mph N/A   Clear
8:15 PM 57.2 °F - 24.8 °F 29% 29.94 in 10.0 mi SSW 15.0 mph 21.9 mph N/A   Clear
8:35 PM 55.4 °F - 24.8 °F 31% 29.94 in 10.0 mi SSW 13.8 mph 19.6 mph N/A   Clear
8:55 PM 55.4 °F - 26.6 °F 33% 29.94 in 10.0 mi South 10.4 mph - N/A   Clear
9:15 PM 51.8 °F - 26.6 °F 38% 29.94 in 10.0 mi SSW 9.2 mph - N/A   Clear
9:35 PM 53.6 °F - 24.8 °F 33% 29.94 in 10.0 mi SSW 10.4 mph - N/A   Clear
9:55 PM 51.8 °F - 24.8 °F 35% 29.94 in 10.0 mi SSW 9.2 mph - N/A   Clear
10:15 PM 51.8 °F - 23.0 °F 33% 29.94 in 10.0 mi South 5.8 mph - N/A   Clear
10:35 PM 46.4 °F 42.9 °F 24.8 °F 43% 29.94 in 10.0 mi SSE 6.9 mph - N/A   Clear
10:55 PM 48.2 °F - 23.0 °F 37% 29.95 in 10.0 mi South 3.5 mph - N/A   Clear
11:15 PM 46.4 °F 41.5 °F 23.0 °F 40% 29.94 in 10.0 mi SW 10.4 mph - N/A   Clear
11:35 PM 51.8 °F - 21.2 °F 30% 29.94 in 10.0 mi SW 10.4 mph - N/A   Clear
11:55 PM 50.0 °F - 21.2 °F 32% 29.94 in 10.0 mi SW 9.2 mph - N/A   Clear